Total_Precipitation_Accumulation
2.67 2.58 2.47 2.54 2.27 2.29 2.63 2.96 2.82 2.90 3.03 2.86 2.55 2.43 2.44 2.28 2.20 2.08 2.25 2.42 2.30 2.36 2.66 2.70 2.65 2.46 2.37 2.17 2.00 1.94 1.88 1.75 1.49 1.16 1.00 0.93 0.85 0.74 0.70 0.68 0.60 0.54 0.49
2.85 2.79 2.61 2.60 2.27 2.16 2.40 2.71 2.74 2.94 2.94 2.92 2.53 2.28 2.22 2.33 2.30 2.14 2.21 2.45 2.43 2.19 2.31 2.65 2.90 2.93 2.76 2.60 2.39 2.19 2.07 1.97 1.67 1.26 1.04 0.98 0.94 0.87 0.87 0.90 0.79 0.63 0.51
3.03 2.95 2.80 2.58 2.43 2.45 2.53 2.54 2.65 3.06 2.88 2.74 2.55 2.46 2.38 2.38 2.26 2.16 2.16 2.34 2.16 2.07 2.07 2.22 2.60 2.93 3.19 3.20 2.96 2.71 2.38 2.10 1.75 1.41 1.17 1.01 0.91 0.87 0.90 0.94 0.93 0.79 0.60
2.91 3.05 2.74 2.44 2.57 2.70 2.81 2.81 2.81 3.02 3.04 3.11 2.98 2.79 2.55 2.42 1.94 1.87 1.91 2.00 2.17 1.89 2.03 2.26 2.42 2.60 3.12 3.53 3.68 3.62 3.08 2.52 2.06 1.64 1.37 1.17 1.08 1.01 0.93 0.88 0.88 0.87 0.74
2.26 2.35 2.20 2.13 2.21 2.35 2.33 2.19 2.53 2.78 2.92 3.07 2.81 2.63 2.27 2.12 1.94 1.83 1.85 1.65 1.81 1.89 1.97 2.08 2.32 2.39 2.88 3.65 4.37 4.62 4.23 3.50 2.76 2.13 1.82 1.66 1.49 1.28 1.08 0.99 0.96 0.96 0.84
1.88 1.95 1.77 1.74 1.95 2.16 2.25 2.38 2.57 2.52 2.43 2.54 2.21 2.08 1.91 1.69 1.75 1.80 1.64 1.59 1.57 1.59 1.80 2.02 2.26 1.97 2.49 3.36 4.10 4.49 4.63 4.24 3.51 2.90 2.59 2.33 2.13 1.77 1.32 1.11 1.05 1.00 0.91
1.91 2.09 1.81 1.99 2.03 2.12 2.17 2.16 2.26 2.19 1.96 2.09 2.42 2.23 1.80 1.61 1.62 1.56 1.55 1.63 1.47 1.55 1.80 2.04 2.24 2.32 2.13 2.16 2.67 3.29 4.11 4.66 4.30 3.67 3.28 2.97 2.77 2.34 1.77 1.49 1.26 1.11 1.01
1.83 1.83 1.92 1.70 1.75 1.90 1.86 1.90 2.20 2.15 1.86 1.94 2.29 2.42 2.14 2.09 1.82 1.35 1.42 1.56 1.53 1.64 1.79 1.88 2.21 2.47 2.38 2.55 2.04 2.19 3.21 4.09 4.57 4.48 4.00 3.36 2.92 2.51 2.11 1.91 1.64 1.40 1.26
1.53 1.57 1.60 1.65 1.76 1.69 1.77 1.86 1.96 2.08 1.97 1.79 1.86 2.33 2.26 2.07 1.86 1.61 1.43 1.41 1.54 1.76 1.84 1.96 2.02 2.14 2.23 2.55 2.53 2.22 2.51 2.80 3.82 4.62 4.52 3.75 2.94 2.39 2.18 2.23 2.12 1.78 1.58
1.48 1.37 1.41 1.46 1.62 1.61 1.83 1.62 1.70 1.93 1.96 1.74 1.76 1.89 1.92 1.95 1.99 1.77 1.50 1.37 1.40 1.52 1.72 1.76 1.94 2.10 2.15 2.33 2.57 2.27 1.99 1.99 2.64 3.55 4.04 3.97 3.34 2.62 2.28 2.42 2.72 2.62 2.17
1.46 1.33 1.36 1.46 1.54 1.59 1.62 1.63 1.86 1.84 1.78 1.75 1.76 1.82 1.88 1.88 1.78 1.79 1.71 1.47 1.37 1.26 1.42 1.66 1.89 2.09 2.05 2.17 2.52 2.33 2.20 2.05 1.92 2.15 2.72 3.18 3.29 3.06 2.77 2.84 3.34 3.72 3.56
1.54 1.53 1.44 1.53 1.51 1.52 1.53 1.55 1.69 1.73 1.76 1.82 1.72 1.67 1.83 1.91 1.83 1.86 1.76 1.54 1.40 1.19 1.22 1.43 1.77 2.07 2.13 2.15 1.98 1.95 2.01 2.00 1.83 1.72 1.82 2.11 2.49 2.76 2.95 3.27 3.74 4.28 4.60
1.48 1.61 1.57 1.58 1.59 1.60 1.50 1.54 1.59 1.57 1.64 1.77 1.72 1.61 1.61 1.60 1.71 1.80 1.81 1.58 1.45 1.26 1.41 1.42 1.49 1.68 1.79 1.91 1.95 1.87 1.69 1.73 1.53 1.44 1.51 1.63 1.87 2.18 2.42 2.65 3.09 3.59 4.02
1.34 1.48 1.59 1.59 1.52 1.45 1.42 1.69 1.56 1.49 1.59 1.65 1.61 1.85 1.79 1.60 1.75 1.84 1.89 1.93 1.75 1.63 1.74 1.62 1.46 1.46 1.57 1.71 1.80 1.70 1.42 1.47 1.36 1.24 1.14 1.09 1.15 1.30 1.49 1.68 1.95 2.26 2.56
1.37 1.44 1.41 1.53 1.53 1.42 1.46 1.63 1.60 1.55 1.60 1.58 1.68 1.89 1.87 1.80 1.82 1.85 2.00 2.22 2.34 2.12 1.89 1.71 1.54 1.39 1.47 1.60 1.64 1.43 1.36 1.50 1.36 1.13 1.03 0.99 0.99 1.03 1.09 1.13 1.20 1.31 1.40
1.38 1.45 1.46 1.38 1.40 1.44 1.51 1.62 1.58 1.54 1.64 1.73 1.88 1.98 1.98 1.96 1.98 1.89 1.97 2.14 2.30 2.34 2.05 1.69 1.62 1.51 1.49 1.31 1.43 1.26 1.21 1.35 1.25 1.16 1.09 1.03 0.99 1.00 1.03 1.04 1.01 1.02 1.06
1.28 1.30 1.33 1.34 1.33 1.42 1.63 1.88 1.81 1.77 1.80 1.86 1.93 2.09 2.16 2.29 2.29 2.15 2.13 2.11 2.16 2.29 2.09 1.77 1.67 1.60 1.45 1.29 1.27 1.18 1.09 1.08 1.06 1.16 1.08 0.98 0.89 0.86 0.90 0.93 0.95 0.94 0.92
1.16 1.07 1.12 1.19 1.18 1.29 1.55 1.87 2.01 2.02 2.06 2.02 2.08 2.28 2.32 2.32 2.28 2.18 2.21 2.18 2.13 2.27 2.15 1.88 1.79 1.67 1.54 1.38 1.29 1.23 1.06 1.01 1.04 1.25 1.18 1.02 0.91 0.86 0.83 0.80 0.79 0.81 0.86
1.22 1.21 1.22 1.23 1.36 1.44 1.49 1.66 1.84 1.93 1.98 1.99 2.12 2.18 2.16 2.22 2.16 2.14 2.05 2.01 2.00 2.16 2.27 2.07 2.00 1.97 1.80 1.59 1.48 1.34 1.19 1.18 1.01 1.05 1.07 0.99 0.94 0.87 0.82 0.79 0.79 0.79 0.77
1.31 1.35 1.36 1.40 1.50 1.53 1.50 1.59 1.75 1.86 1.93 1.96 2.03 2.10 2.15 2.15 2.18 2.27 2.16 2.13 2.22 2.33 2.39 2.30 2.18 2.24 2.13 1.89 1.69 1.51 1.34 1.25 1.15 0.95 0.99 1.01 0.98 0.90 0.82 0.76 0.74 0.74 0.77
1.39 1.46 1.53 1.51 1.50 1.44 1.40 1.61 1.75 1.76 1.90 1.96 1.95 1.91 1.99 2.16 2.24 2.27 2.10 2.16 2.28 2.28 2.24 2.24 2.19 2.28 2.26 2.10 1.78 1.53 1.44 1.40 1.29 1.12 1.04 0.93 0.94 0.92 0.90 0.89 0.87 0.84 0.79
1.53 1.63 1.67 1.69 1.60 1.40 1.60 1.70 1.71 1.75 1.85 1.89 1.89 1.79 1.72 1.74 1.83 1.95 1.95 1.91 1.95 2.01 2.06 2.07 2.09 2.16 2.18 2.07 1.88 1.69 1.58 1.47 1.39 1.35 1.37 1.31 1.17 1.17 1.05 0.93 0.97 0.93 0.88
1.68 1.71 1.68 1.69 1.67 1.70 1.73 1.56 1.50 1.42 1.48 1.55 1.55 1.51 1.32 1.24 1.49 1.60 1.74 1.73 1.62 1.60 1.63 1.77 1.88 1.91 2.06 2.10 2.07 1.87 1.80 1.69 1.52 1.48 1.51 1.51 1.42 1.30 1.10 1.04 1.13 0.98 0.93
1.92 1.87 1.78 1.78 1.84 1.85 1.85 1.59 1.48 1.34 1.34 1.34 1.33 1.29 1.29 1.29 1.36 1.48 1.52 1.50 1.45 1.41 1.41 1.43 1.53 1.73 1.92 2.08 2.09 2.01 1.97 1.84 1.65 1.53 1.52 1.53 1.43 1.35 1.18 1.11 1.14 1.02 0.95
2.24 2.14 2.08 2.10 2.13 2.22 2.21 1.90 1.76 1.53 1.47 1.40 1.42 1.46 1.47 1.35 1.40 1.37 1.35 1.34 1.33 1.38 1.40 1.39 1.40 1.57 1.75 1.87 2.04 2.02 1.94 1.83 1.66 1.55 1.50 1.45 1.40 1.43 1.35 1.19 1.06 0.99 0.84
2.53 2.51 2.52 2.55 2.49 2.47 2.42 2.06 1.92 1.71 1.70 1.66 1.66 1.57 1.49 1.33 1.28 1.22 1.21 1.27 1.23 1.25 1.36 1.37 1.35 1.43 1.56 1.69 1.88 1.85 1.77 1.79 1.64 1.52 1.38 1.37 1.36 1.41 1.43 1.23 1.02 0.88 0.79